Regional Weather Roundup
Issued by NWS Charleston, WV

Home | Current Version | Previous Version | Graphics & Text | Print | Product List | Glossary On
Versions: 1 2 3 4 5 6 7 8 9 10 11 12 13 14 15 16 17 18 19 20 21 22 23 24 25 26 27 28
000
ASUS41 KRLX 280010
RWRRLX
West Virginia Regional Weather Roundup
National Weather Service Charleston WV
800 PM EDT THU APR 27 2017

Note: "fair" indicates few or no clouds below 12,000 feet with no
significant weather and/or obstructions to visibility.

WVZ003-280100-
Northern Panhandle of West Virginia

CITY           SKY/WX    TMP DP  RH WIND       PRES   REMARKS
WHEELING       MOCLDY    71  56  58 SW9       29.71R
$$

WVZ009-280100-
Northwest West Virginia

CITY           SKY/WX    TMP DP  RH WIND       PRES   REMARKS
PARKERSBURG    MOCLDY    75  55  49 W12G22    29.75R
$$

WVZ006-280100-
Western West Virginia

CITY           SKY/WX    TMP DP  RH WIND       PRES   REMARKS
HUNTINGTON     CLEAR     72  53  51 W9        29.77R
$$

WVZ015-280100-
West Central West Virginia

CITY           SKY/WX    TMP DP  RH WIND       PRES   REMARKS
CHARLESTON     PTCLDY    72  60  66 S7        29.76R
$$

WVZ022-031-280100-
North Central West Virginia

CITY           SKY/WX    TMP DP  RH WIND       PRES   REMARKS
CLARKSBURG     CLEAR     65  60  84 S7        29.76S
MORGANTOWN     CLOUDY    65  60  84 VRB3      29.76S
$$

WVZ025-035-042-045-280100-
Southern West Virginia

CITY           SKY/WX    TMP DP  RH WIND       PRES   REMARKS
BECKLEY        CLOUDY    63  57  81 S7        29.86S
LOGAN          NOT AVBL
BLUEFIELD      LGT RAIN  60  56  86 S7        29.90R
LEWISBURG      CLOUDY    60  58  93 S5        29.89S
$$

WVZ047-280100-
Northern Mountains of West Virginia

CITY           SKY/WX    TMP DP  RH WIND       PRES   REMARKS
ELKINS         CLOUDY    63  59  87 SE3       29.82S
$$

WVZ052-280100-
Eastern Panhandle of West Virginia

CITY           SKY/WX    TMP DP  RH WIND       PRES   REMARKS
MARTINSBURG    CLOUDY    76  57  51 S10       29.73R
PETERSBURG     TSTM      68  64  86 N3        29.80R
$$




USA.gov is the U.S. government's official web portal to all federal, state and local government web resources and services.